Location: Misciano
(43.5000°N, 11.9500°E)
Time: 10:43:04
(UTC+00:00)

Cosmos 1980 Rocket - Pass Details

Date: 13 August 2020
Orbit: 829 x 849 km, 71.0° (Epoch: 20 September)

Event Time Altitude Azimuth Distance (km) Brightness Sun altitude
Rises 21:03:15 0° 319° (NW) 3,412 6.8 -24.6°
Reaches altitude 10° 21:06:29 10° 301° (WNW) 2,468 5.5 -25.0°
Maximum altitude 21:10:05 18° 261° (W) 1,978 4.4 -25.3°
Enters shadow 21:13:12 12° 225° (SW) 2,342 4.4 -25.6°
